Terug naar catalogus

METEOR 2-17 DEB

ActiefPO
NORAD 38542·DEBRIS·🇷🇺 Russia

Gelanceerd Jan 30, 1988 vanaf Plesetsk Cosmodrome

Loading…

Volgende Passages (komende 24 uur)

TLE

VersSource: Space-Track

Epoch: Sep 13, 2026, 12:39 UTC

1 38542U 88005AV  26256.52771321  .00001810  00000-0  11711-2 0  9995
2 38542  82.5307 189.3900 0025703   4.6461 355.4942 14.02156783616717

Volg METEOR 2-17 DEB in realtime met AllMySat

Download on the App Store